Time,TemperatureF,DewpointF,PressureIn,WindDirection,WindDirectionDegrees,WindSpeedMPH,WindSpeedGustMPH,Humidity,HourlyPrecipIn,Conditions,Clouds,dailyrainin,SolarRadiationWatts/m^2,SoftwareType,DateUTC
2013-06-05 00:00:00,47.0,44.0,-100.00,SSW,202,1.0,-999.0,89,-99.99,,,-99.99,0.000000,,2013-06-05 05:00:00,
2013-06-05 00:32:00,47.0,44.0,-100.00,SSW,202,1.0,-999.0,89,-99.99,,,-99.99,0.000000,,2013-06-05 05:32:00,
2013-06-05 00:42:00,47.0,44.0,-100.00,SSW,202,1.0,-999.0,89,-99.99,,,-99.99,0.000000,,2013-06-05 05:42:00,
2013-06-05 00:52:00,47.0,44.0,-100.00,SSW,202,1.0,-999.0,89,-99.99,,,-99.99,0.000000,,2013-06-05 05:52:00,
2013-06-05 01:00:00,47.0,45.0,-100.00,NNW,337,0.0,-999.0,93,-99.99,,,-99.99,0.000000,,2013-06-05 06:00:00,
2013-06-05 01:32:00,47.0,45.0,-100.00,NNW,337,0.0,-999.0,93,-99.99,,,-99.99,0.000000,,2013-06-05 06:32:00,
2013-06-05 01:42:00,47.0,45.0,-100.00,NNW,337,0.0,-999.0,93,-99.99,,,-99.99,0.000000,,2013-06-05 06:42:00,
2013-06-05 01:52:00,47.0,45.0,-100.00,NNW,337,0.0,-999.0,93,-99.99,,,-99.99,0.000000,,2013-06-05 06:52:00,
2013-06-05 02:00:00,47.0,45.0,-100.00,SW,225,0.0,-999.0,92,-99.99,,,-99.99,0.000000,,2013-06-05 07:00:00,
2013-06-05 02:32:00,47.0,45.0,-100.00,SW,225,0.0,-999.0,92,-99.99,,,-99.99,0.000000,,2013-06-05 07:32:00,
2013-06-05 02:42:00,47.0,45.0,-100.00,SW,225,0.0,-999.0,92,-99.99,,,-99.99,0.000000,,2013-06-05 07:42:00,
2013-06-05 02:52:00,47.0,45.0,-100.00,SW,225,0.0,-999.0,92,-99.99,,,-99.99,0.000000,,2013-06-05 07:52:00,
2013-06-05 03:00:00,47.0,44.0,-100.00,ENE,67,1.0,-999.0,88,-99.99,,,-99.99,0.000000,,2013-06-05 08:00:00,
2013-06-05 03:32:00,47.0,44.0,-100.00,ENE,67,1.0,-999.0,88,-99.99,,,-99.99,0.000000,,2013-06-05 08:32:00,
2013-06-05 03:42:00,47.0,44.0,-100.00,ENE,67,1.0,-999.0,88,-99.99,,,-99.99,0.000000,,2013-06-05 08:42:00,
2013-06-05 03:52:00,47.0,44.0,-100.00,ENE,67,1.0,-999.0,88,-99.99,,,-99.99,0.000000,,2013-06-05 08:52:00,
2013-06-05 04:00:00,48.0,40.0,-100.00,East,90,1.0,-999.0,73,-99.99,,,-99.99,0.000000,,2013-06-05 09:00:00,
2013-06-05 04:33:00,48.0,40.0,-100.00,East,90,1.0,-999.0,73,-99.99,,,-99.99,0.000000,,2013-06-05 09:33:00,
2013-06-05 04:43:00,48.0,40.0,-100.00,East,90,1.0,-999.0,73,-99.99,,,-99.99,0.000000,,2013-06-05 09:43:00,
2013-06-05 04:53:00,48.0,40.0,-100.00,East,90,1.0,-999.0,73,-99.99,,,-99.99,0.000000,,2013-06-05 09:53:00,
2013-06-05 05:00:00,47.0,39.0,-100.00,ESE,112,0.0,-999.0,74,-99.99,,,-99.99,0.000000,,2013-06-05 10:00:00,
2013-06-05 05:33:00,47.0,39.0,-100.00,ESE,112,0.0,-999.0,74,-99.99,,,-99.99,0.000000,,2013-06-05 10:33:00,
2013-06-05 05:43:00,47.0,39.0,-100.00,ESE,112,0.0,-999.0,74,-99.99,,,-99.99,0.000000,,2013-06-05 10:43:00,
2013-06-05 05:53:00,47.0,39.0,-100.00,ESE,112,0.0,-999.0,74,-99.99,,,-99.99,0.000000,,2013-06-05 10:53:00,
2013-06-05 06:00:00,47.0,39.0,-100.00,ESE,112,1.0,-999.0,72,-99.99,,,-99.99,3.480000,,2013-06-05 11:00:00,
2013-06-05 06:33:00,47.0,39.0,-100.00,ESE,112,1.0,-999.0,72,-99.99,,,-99.99,3.480000,,2013-06-05 11:33:00,
2013-06-05 06:42:00,47.0,39.0,-100.00,ESE,112,1.0,-999.0,72,-99.99,,,-99.99,3.480000,,2013-06-05 11:42:00,
2013-06-05 06:52:00,47.0,39.0,-100.00,ESE,112,1.0,-999.0,72,-99.99,,,-99.99,3.480000,,2013-06-05 11:52:00,
2013-06-05 07:00:00,48.0,37.0,-100.00,East,90,0.0,-999.0,67,-99.99,,,-99.99,17.400000,,2013-06-05 12:00:00,
2013-06-05 07:32:00,48.0,37.0,-100.00,East,90,0.0,-999.0,67,-99.99,,,-99.99,17.400000,,2013-06-05 12:32:00,
2013-06-05 07:44:00,48.0,37.0,-100.00,East,90,0.0,-999.0,67,-99.99,,,-99.99,17.400000,,2013-06-05 12:44:00,
2013-06-05 07:52:00,48.0,37.0,-100.00,East,90,0.0,-999.0,67,-99.99,,,-99.99,17.400000,,2013-06-05 12:52:00,
2013-06-05 08:00:00,47.0,41.0,-100.00,East,90,0.0,-999.0,77,-99.99,,,-99.99,38.279999,,2013-06-05 13:00:00,
2013-06-05 08:33:00,47.0,41.0,-100.00,East,90,0.0,-999.0,77,-99.99,,,-99.99,38.279999,,2013-06-05 13:33:00,
2013-06-05 08:42:00,47.0,41.0,-100.00,East,90,0.0,-999.0,77,-99.99,,,-99.99,38.279999,,2013-06-05 13:42:00,
2013-06-05 08:52:00,47.0,41.0,-100.00,East,90,0.0,-999.0,77,-99.99,,,-99.99,38.279999,,2013-06-05 13:52:00,
2013-06-05 09:00:00,47.0,42.0,-100.00,ENE,67,1.0,-999.0,83,0.01,,,-99.99,54.520000,,2013-06-05 14:00:00,
2013-06-05 09:32:00,47.0,42.0,-100.00,ENE,67,1.0,-999.0,83,0.01,,,-99.99,54.520000,,2013-06-05 14:32:00,
2013-06-05 09:42:00,47.0,42.0,-100.00,ENE,67,1.0,-999.0,83,0.01,,,-99.99,54.520000,,2013-06-05 14:42:00,
2013-06-05 09:52:00,47.0,42.0,-100.00,ENE,67,1.0,-999.0,83,0.01,,,-99.99,54.520000,,2013-06-05 14:52:00,
2013-06-05 10:00:00,48.0,43.0,-100.00,East,90,2.0,-999.0,80,-99.99,,,-99.99,133.399994,,2013-06-05 15:00:00,
2013-06-05 10:33:00,48.0,43.0,-100.00,East,90,2.0,-999.0,80,-99.99,,,-99.99,133.399994,,2013-06-05 15:33:00,
2013-06-05 10:43:00,48.0,43.0,-100.00,East,90,2.0,-999.0,80,-99.99,,,-99.99,133.399994,,2013-06-05 15:43:00,
2013-06-05 10:53:00,48.0,43.0,-100.00,East,90,2.0,-999.0,80,-99.99,,,-99.99,133.399994,,2013-06-05 15:53:00,
2013-06-05 11:00:00,51.0,45.0,-100.00,NE,45,1.0,-999.0,81,-99.99,,,-99.99,143.839996,,2013-06-05 16:00:00,
2013-06-05 11:32:00,51.0,45.0,-100.00,NE,45,1.0,-999.0,81,-99.99,,,-99.99,143.839996,,2013-06-05 16:32:00,
2013-06-05 11:42:00,51.0,45.0,-100.00,NE,45,1.0,-999.0,81,-99.99,,,-99.99,143.839996,,2013-06-05 16:42:00,
2013-06-05 11:54:00,51.0,45.0,-100.00,NE,45,1.0,-999.0,81,-99.99,,,-99.99,143.839996,,2013-06-05 16:54:00,
2013-06-05 12:00:00,52.0,46.0,-100.00,ENE,67,2.0,-999.0,79,-99.99,,,-99.99,136.880005,,2013-06-05 17:00:00,
2013-06-05 12:33:00,52.0,46.0,-100.00,ENE,67,2.0,-999.0,79,-99.99,,,-99.99,136.880005,,2013-06-05 17:33:00,
2013-06-05 12:43:00,52.0,46.0,-100.00,ENE,67,2.0,-999.0,79,-99.99,,,-99.99,136.880005,,2013-06-05 17:43:00,
2013-06-05 12:52:00,52.0,46.0,-100.00,ENE,67,2.0,-999.0,79,-99.99,,,-99.99,136.880005,,2013-06-05 17:52:00,
2013-06-05 13:00:00,51.0,45.0,-100.00,ENE,67,3.0,-999.0,80,-99.99,,,-99.99,204.160004,,2013-06-05 18:00:00,
2013-06-05 13:32:00,51.0,45.0,-100.00,ENE,67,3.0,-999.0,80,-99.99,,,-99.99,204.160004,,2013-06-05 18:32:00,
2013-06-05 13:42:00,51.0,45.0,-100.00,ENE,67,3.0,-999.0,80,-99.99,,,-99.99,204.160004,,2013-06-05 18:42:00,
2013-06-05 13:52:00,51.0,45.0,-100.00,ENE,67,3.0,-999.0,80,-99.99,,,-99.99,204.160004,,2013-06-05 18:52:00,
2013-06-05 14:00:00,52.0,46.0,-100.00,East,90,4.0,-999.0,80,-99.99,,,-99.99,237.800003,,2013-06-05 19:00:00,
2013-06-05 14:32:00,52.0,46.0,-100.00,East,90,4.0,-999.0,80,-99.99,,,-99.99,237.800003,,2013-06-05 19:32:00,
2013-06-05 14:42:00,52.0,46.0,-100.00,East,90,4.0,-999.0,80,-99.99,,,-99.99,237.800003,,2013-06-05 19:42:00,
2013-06-05 14:53:00,52.0,46.0,-100.00,East,90,4.0,-999.0,80,-99.99,,,-99.99,237.800003,,2013-06-05 19:53:00,
2013-06-05 15:00:00,53.0,46.0,-100.00,East,90,4.0,-999.0,76,-99.99,,,-99.99,422.239990,,2013-06-05 20:00:00,
2013-06-05 15:32:00,53.0,46.0,-100.00,East,90,4.0,-999.0,76,-99.99,,,-99.99,422.239990,,2013-06-05 20:32:00,
2013-06-05 15:42:00,53.0,46.0,-100.00,East,90,4.0,-999.0,76,-99.99,,,-99.99,422.239990,,2013-06-05 20:42:00,
2013-06-05 15:52:00,53.0,46.0,-100.00,East,90,4.0,-999.0,76,-99.99,,,-99.99,422.239990,,2013-06-05 20:52:00,
2013-06-05 16:00:00,54.0,47.0,-100.00,East,90,4.0,-999.0,74,-99.99,,,-99.99,367.720001,,2013-06-05 21:00:00,
2013-06-05 16:33:00,54.0,47.0,-100.00,East,90,4.0,-999.0,74,-99.99,,,-99.99,367.720001,,2013-06-05 21:33:00,
2013-06-05 16:43:00,54.0,47.0,-100.00,East,90,4.0,-999.0,74,-99.99,,,-99.99,367.720001,,2013-06-05 21:43:00,
2013-06-05 16:53:00,54.0,47.0,-100.00,East,90,4.0,-999.0,74,-99.99,,,-99.99,367.720001,,2013-06-05 21:53:00,
2013-06-05 17:00:00,52.0,46.0,-100.00,East,90,3.0,-999.0,78,-99.99,,,-99.99,230.839996,,2013-06-05 22:00:00,
2013-06-05 17:33:00,52.0,46.0,-100.00,East,90,3.0,-999.0,78,-99.99,,,-99.99,230.839996,,2013-06-05 22:33:00,
2013-06-05 17:43:00,52.0,46.0,-100.00,East,90,3.0,-999.0,78,-99.99,,,-99.99,230.839996,,2013-06-05 22:43:00,
2013-06-05 17:53:00,52.0,46.0,-100.00,East,90,3.0,-999.0,78,-99.99,,,-99.99,230.839996,,2013-06-05 22:53:00,
2013-06-05 18:00:00,51.0,45.0,-100.00,East,90,4.0,-999.0,79,-99.99,,,-99.99,99.760002,,2013-06-05 23:00:00,
2013-06-05 18:32:00,51.0,45.0,-100.00,East,90,4.0,-999.0,79,-99.99,,,-99.99,99.760002,,2013-06-05 23:32:00,
2013-06-05 18:42:00,51.0,45.0,-100.00,East,90,4.0,-999.0,79,-99.99,,,-99.99,99.760002,,2013-06-05 23:42:00,
2013-06-05 18:53:00,51.0,45.0,-100.00,East,90,4.0,-999.0,79,-99.99,,,-99.99,99.760002,,2013-06-05 23:53:00,
2013-06-05 19:00:00,51.0,46.0,-100.00,East,90,3.0,-999.0,83,-99.99,,,-99.99,61.480000,,2013-06-06 00:00:00,
2013-06-05 19:32:00,51.0,46.0,-100.00,East,90,3.0,-999.0,83,-99.99,,,-99.99,61.480000,,2013-06-06 00:32:00,
2013-06-05 19:43:00,51.0,46.0,-100.00,East,90,3.0,-999.0,83,-99.99,,,-99.99,61.480000,,2013-06-06 00:43:00,
2013-06-05 19:52:00,51.0,46.0,-100.00,East,90,3.0,-999.0,83,-99.99,,,-99.99,61.480000,,2013-06-06 00:52:00,
2013-06-05 20:00:00,50.0,47.0,-100.00,East,90,3.0,-999.0,88,-99.99,,,-99.99,16.240000,,2013-06-06 01:00:00,
2013-06-05 20:32:00,50.0,47.0,-100.00,East,90,3.0,-999.0,88,-99.99,,,-99.99,16.240000,,2013-06-06 01:32:00,
2013-06-05 20:42:00,50.0,47.0,-100.00,East,90,3.0,-999.0,88,-99.99,,,-99.99,16.240000,,2013-06-06 01:42:00,
2013-06-05 20:53:00,50.0,47.0,-100.00,East,90,3.0,-999.0,88,-99.99,,,-99.99,16.240000,,2013-06-06 01:53:00,
2013-06-05 21:00:00,49.0,47.0,-100.00,East,90,3.0,-999.0,90,-99.99,,,-99.99,2.320000,,2013-06-06 02:00:00,
2013-06-05 21:32:00,49.0,47.0,-100.00,East,90,3.0,-999.0,90,-99.99,,,-99.99,2.320000,,2013-06-06 02:32:00,
2013-06-05 21:42:00,49.0,47.0,-100.00,East,90,3.0,-999.0,90,-99.99,,,-99.99,2.320000,,2013-06-06 02:42:00,
2013-06-05 21:52:00,49.0,47.0,-100.00,East,90,3.0,-999.0,90,-99.99,,,-99.99,2.320000,,2013-06-06 02:52:00,
2013-06-05 22:00:00,49.0,46.0,-100.00,ENE,67,3.0,-999.0,89,-99.99,,,-99.99,0.000000,,2013-06-06 03:00:00,
2013-06-05 22:33:00,49.0,46.0,-100.00,ENE,67,3.0,-999.0,89,-99.99,,,-99.99,0.000000,,2013-06-06 03:33:00,
2013-06-05 22:43:00,49.0,46.0,-100.00,ENE,67,3.0,-999.0,89,-99.99,,,-99.99,0.000000,,2013-06-06 03:43:00,
2013-06-05 22:53:00,49.0,46.0,-100.00,ENE,67,3.0,-999.0,89,-99.99,,,-99.99,0.000000,,2013-06-06 03:53:00,
2013-06-05 23:00:00,48.0,45.0,-100.00,ENE,67,3.0,-999.0,87,-99.99,,,-99.99,0.000000,,2013-06-06 04:00:00,
2013-06-05 23:33:00,48.0,45.0,-100.00,ENE,67,3.0,-999.0,87,-99.99,,,-99.99,0.000000,,2013-06-06 04:33:00,
2013-06-05 23:42:00,48.0,45.0,-100.00,ENE,67,3.0,-999.0,87,-99.99,,,-99.99,0.000000,,2013-06-06 04:42:00,
2013-06-05 23:53:00,48.0,45.0,-100.00,ENE,67,3.0,-999.0,87,-99.99,,,-99.99,0.000000,,2013-06-06 04:53:00,